User: anonymous   Login
Location: Bonn
(50.7330°N, 7.1000°E)
Time: 00:04:30
(UTC+02:00)
Language:

Iridium 84 - Orbit

View from above orbital plane
View from above orbital plane
View from above satellite
View from above satellite

Ground track
Ground track

The orbit data is extracted from the following two-line orbital elements,

1 25530U 98066D   16149.51103230 -.00000009  00000-0 -10434-4 0  9997
2 25530  86.3952 150.8038 0002272  83.5765 276.5690 14.34217376921861
Epoch (UTC): 28 May 2016 12:15:53
Eccentricity: 0.0002272
inclination: 86.3952°
perigee height: 776 km
apogee height: 779 km
right ascension of ascending node: 150.8038°
argument of perigee: 83.5765°
revolutions per day: 14.34217376
mean anomaly at epoch: 276.5690°
orbit number at epoch: 92186

The dashed part of the orbit path shows where the satellite is in the earth's shadow,  

DLR